[[{"header":{"parameterUnit":"m.s-1","parameterCategory":1,"la1":30.2991,"la2":30.254,"lo1":-89.0895,"lo2":-89.0444,"dy":0.0017,"dx":0.0017,"nx":28,"ny":28,"refTime":"2024-02-21T03:00:00:Z","depth":0,"parameterNumber":2,"parameterNumberName":"U-component_of_WINDS"},"data":[0,0,0,0,0,0,0,0,0,0,0,0,0,0,0,0,0,0,0,0,0,0,0,0,0,0,0,0,0,0,0,0,0,0,0,0,0,0,0,0,0,0,0,0,0,0,0,0,0,0,0,0,0,0,0,0,0,0,1.6055,1.6056,0,1.6124,1.6124,1.6125,1.6135,1.6135,1.6134,1.6134,1.6209,1.6212,1.6214,0,0,0,0,0,0,0,0,0,0,0,0,0,1.5941,1.5943,1.6055,1.6056,1.6057,1.6123,1.6124,1.6125,1.6136,1.6135,1.6134,1.6133,1.6208,1.6211,1.6215,0,0,0,0,0,0,0,0,0,0,0,0,0,1.5998,1.5944,1.6055,1.607,1.6072,1.6123,1.6124,1.6126,1.6136,1.6135,1.6134,1.6133,1.6207,1.6211,1.6215,1.6258,0,0,1.6227,1.6229,0,0,0,0,0,0,0,0,1.5995,1.6002,1.6067,1.6069,1.6071,1.612,1.6112,1.617,1.6136,1.6112,1.6134,1.6132,1.6181,1.6187,1.6202,1.6262,1.6265,1.6227,1.623,1.6231,1.6232,0,0,0,0,0,0,0,1.5991,1.6,1.6082,1.6068,1.6071,1.6076,1.6083,1.6123,1.6151,1.6114,1.6115,1.6122,1.6182,1.6198,1.6204,1.6266,1.6227,1.6231,1.6233,1.6235,1.6368,1.6369,0,0,0,0,0,0,1.5983,1.5996,1.608,1.6085,1.603,1.6078,1.6086,1.6105,1.615,1.6156,1.6123,1.6122,1.6192,1.6199,1.6206,1.6261,1.6231,1.6235,1.6237,1.6367,1.6368,1.6369,0,0,0,0,0,0,1.5981,1.5991,1.6078,1.6041,1.6052,1.6081,1.6103,1.6107,1.6123,1.6157,1.6163,1.6134,1.6191,1.6201,1.6245,1.6264,1.6237,1.624,1.6365,1.6367,1.6369,1.637,0,0,0,0,0,0,1.5978,1.599,1.6004,1.6041,1.6054,1.6113,1.6104,1.6109,1.6129,1.6129,1.6169,1.6175,1.6191,1.6239,1.6249,1.6269,1.6243,1.6364,1.6366,1.6368,1.6369,1.6372,1.6375,0,0,0,0,0,1.5973,1.6003,1.6005,1.6015,1.6073,1.6114,1.6122,1.6138,1.6131,1.6147,1.617,1.6174,1.626,1.6244,1.6255,1.6276,1.6363,1.6365,1.6368,1.6367,1.6371,1.6374,0,0,0,0,0,0,1.5969,1.6008,1.6011,1.6052,1.608,1.6116,1.6136,1.6142,1.6173,1.6172,1.6193,1.6202,1.6246,1.6266,1.6247,1.6322,1.6311,1.6316,1.6307,1.6311,1.6314,1.6308,1.6247,0,0,0,0,0,1.5973,1.6001,1.6034,1.6068,1.6082,1.6107,1.6125,1.6136,1.6166,1.6178,1.6204,1.6234,1.6269,1.6291,1.6324,1.6372,1.6382,1.6392,1.6395,1.6397,1.6402,1.6431,1.6436,1.6378,1.6378,1.6378,0,0,1.5981,1.6006,1.6023,1.6068,1.609,1.6122,1.6116,1.6149,1.6173,1.6184,1.6227,1.6247,1.6283,1.633,1.6352,1.6347,1.642,1.6401,1.6402,1.6405,1.6434,1.6439,1.6444,1.638,1.638,1.6379,0,0,1.6012,1.6033,1.6064,1.6087,1.6121,1.6138,1.6145,1.6181,1.6194,1.6238,1.6247,1.6278,1.6336,1.6361,1.6382,1.6426,1.6432,1.6437,1.6452,1.648,1.6485,1.6489,1.6506,1.6512,1.6441,1.6441,1.6441,0,1.6019,1.6064,1.608,1.6113,1.6133,1.6143,1.6177,1.6199,1.6243,1.6258,1.6252,1.6327,1.6352,1.6406,1.6416,1.6433,1.6444,1.6432,1.6483,1.6487,1.6491,1.6508,1.6514,1.6441,1.6441,1.6441,1.6441,0,1.6071,1.6103,1.6124,1.6165,1.6188,1.6221,1.6245,1.6267,1.6277,1.6295,1.6341,1.6372,1.6412,1.6426,1.6436,1.6483,1.6479,1.6478,1.6468,1.6497,1.6513,1.6519,1.6442,1.6442,1.6442,1.6442,0,0,1.6099,1.615,1.6158,1.6177,1.6216,1.6242,1.6278,1.6316,1.6336,1.6367,1.6398,1.6448,1.6448,1.6471,1.6485,1.6509,1.6545,1.6506,1.6507,1.6513,1.66,1.6601,1.6608,1.6549,1.655,1.6551,1.6597,0,1.6136,1.6196,1.6212,1.6264,1.6295,1.6307,1.6338,1.6367,1.6386,1.6417,1.6439,1.6474,1.647,1.6485,1.651,1.6535,1.6562,1.6532,1.658,1.6582,1.6571,1.6616,1.6616,1.6658,1.6604,1.6605,1.6606,0,1.6185,1.6216,1.627,1.6308,1.6322,1.6348,1.6386,1.6415,1.645,1.6462,1.649,1.6501,1.6541,1.653,1.6586,1.6565,1.6587,1.6602,1.6604,1.661,1.6595,1.6623,1.6672,1.6678,1.6615,1.6615,1.6614,0,1.6202,1.6257,1.6297,1.6314,1.6358,1.6377,1.6397,1.643,1.6453,1.6488,1.6503,1.6542,1.6564,1.6595,1.6618,1.6607,1.6674,1.6663,1.6687,1.6687,1.67,1.6699,1.6754,1.6714,1.6714,1.6713,1.6713,0,1.624,1.6274,1.6305,1.633,1.6369,1.639,1.6428,1.6449,1.6479,1.651,1.6523,1.6553,1.6581,1.6616,1.6634,1.668,1.6689,1.6702,1.6707,1.6701,1.67,1.6715,1.6713,1.6715,1.6715,1.6714,1.6714,0,1.6265,1.6287,1.6332,1.6371,1.6381,1.6408,1.6443,1.6469,1.6489,1.6529,1.6539,1.6572,1.6613,1.6639,1.6692,1.6705,1.6755,1.6758,1.6742,1.6745,1.6767,1.6765,1.6834,1.6845,1.6797,1.6798,1.6798,0,1.6288,1.6313,1.6355,1.6376,1.6396,1.6429,1.6453,1.6476,1.65,1.6543,1.6564,1.6606,1.664,1.6706,1.6736,1.6778,1.6783,1.6804,1.6789,1.6783,1.6784,1.6782,1.6786,1.6807,1.6807,1.6807,1.6807,0,1.6327,1.6337,1.6369,1.6406,1.6433,1.6464,1.6495,1.6512,1.6541,1.6568,1.6609,1.6636,1.669,1.6732,1.6777,1.68,1.681,1.6812,1.682,1.6814,1.6804,1.6811,1.675,1.681,1.681,1.681,1.681,1.681,1.6352,1.6376,1.6409,1.6446,1.6471,1.65,1.6527,1.6551,1.6585,1.6629,1.6642,1.6686,1.6723,1.6783,1.6808,1.6845,1.6842,1.6853,1.6856,1.6858,1.6859,1.6798,1.6853,1.6853,1.6853,1.6853,1.6853,0,1.6392,1.6414,1.6447,1.649,1.6519,1.6525,1.656,1.6585,1.6622,1.6655,1.6689,1.6739,1.678,1.6814,1.6858,1.6881,1.6886,1.6892,1.689,1.6896,1.6858,1.6847,1.6886,1.6886,1.6886,1.6886,1.6886,1.6886,1.6416,1.6458,1.6473,1.6529,1.6552,1.6593,1.6613,1.6641,1.6668,1.6722,1.6756,1.6777,1.6812,1.6858,1.6898,1.6907,1.6923,1.6928,1.6938,1.6902,1.6898,1.6895,1.6885,1.6931,1.6931,1.6972,1.6973,1.6973]},{"header":{"parameterUnit":"m.s-1","parameterCategory":1,"la1":30.2991,"la2":30.254,"lo1":-89.0895,"lo2":-89.0444,"dy":0.0017,"dx":0.0017,"nx":28,"ny":28,"refTime":"2024-02-21T03:00:00:Z","depth":0,"parameterNumber":3,"parameterNumberName":"V-component_of_WINDS"},"data":[0,0,0,0,0,0,0,0,0,0,0,0,0,0,0,0,0,0,0,0,0,0,0,0,0,0,0,0,0,0,0,0,0,0,0,0,0,0,0,0,0,0,0,0,0,0,0,0,0,0,0,0,0,0,0,0,0,0,2.272,2.2721,0,2.2792,2.2793,2.2794,2.2818,2.2818,2.2818,2.2818,2.2887,2.2889,2.2891,0,0,0,0,0,0,0,0,0,0,0,0,0,2.2598,2.26,2.272,2.2721,2.2722,2.2792,2.2793,2.2794,2.2819,2.2818,2.2818,2.2818,2.2887,2.2889,2.2892,0,0,0,0,0,0,0,0,0,0,0,0,0,2.2658,2.26,2.272,2.2743,2.2746,2.2792,2.2793,2.2794,2.2819,2.2818,2.2818,2.2817,2.2886,2.2889,2.2892,2.2919,0,0,2.2901,2.2903,0,0,0,0,0,0,0,0,2.2655,2.2663,2.2739,2.2741,2.2744,2.2796,2.2775,2.2836,2.2819,2.2791,2.2818,2.2817,2.2857,2.2862,2.2877,2.2923,2.2925,2.2902,2.2904,2.2905,2.2906,0,0,0,0,0,0,0,2.265,2.266,2.2748,2.274,2.2743,2.2747,2.2755,2.2787,2.2825,2.2793,2.2795,2.2803,2.2858,2.2874,2.2878,2.2927,2.2902,2.2904,2.2906,2.2908,2.2993,2.2994,0,0,0,0,0,0,2.2643,2.2656,2.2746,2.2751,2.2698,2.275,2.2759,2.278,2.2825,2.2831,2.2804,2.2804,2.2868,2.2875,2.2881,2.2913,2.2905,2.2908,2.291,2.2993,2.2993,2.2994,0,0,0,0,0,0,2.264,2.2651,2.2743,2.2704,2.2716,2.2752,2.2775,2.2781,2.2797,2.2833,2.2839,2.2813,2.2868,2.2877,2.2909,2.2916,2.2909,2.2912,2.2993,2.2993,2.2994,2.298,0,0,0,0,0,0,2.2637,2.265,2.2663,2.2704,2.2718,2.2772,2.2776,2.2783,2.2802,2.2804,2.2843,2.2849,2.2869,2.2904,2.2912,2.292,2.2915,2.2992,2.2993,2.2994,2.298,2.298,2.298,0,0,0,0,0,2.2632,2.2656,2.2663,2.2674,2.2735,2.2773,2.278,2.2804,2.2803,2.2815,2.2837,2.2848,2.2914,2.2907,2.2916,2.2926,2.2992,2.2993,2.2993,2.298,2.298,2.298,0,0,0,0,0,0,2.2615,2.2662,2.2671,2.2709,2.2736,2.2777,2.2793,2.2804,2.2831,2.2831,2.2858,2.2866,2.2895,2.2914,2.2905,2.2952,2.2953,2.2956,2.294,2.294,2.294,2.2935,2.2917,0,0,0,0,0,2.2615,2.2644,2.2683,2.2712,2.2726,2.2756,2.2774,2.2789,2.2818,2.283,2.2855,2.2881,2.2908,2.2925,2.2952,2.2982,2.2989,2.2993,2.2993,2.2993,2.2995,2.3009,2.301,2.2997,2.2997,2.2997,0,0,2.2617,2.2646,2.2662,2.2709,2.2733,2.2759,2.2766,2.2795,2.2814,2.2834,2.2866,2.2884,2.2915,2.2946,2.2961,2.2962,2.2999,2.2994,2.2993,2.2996,2.301,2.3011,2.3012,2.2997,2.2997,2.2997,0,0,2.2633,2.2659,2.2685,2.2707,2.2742,2.2762,2.2767,2.2805,2.2819,2.2851,2.2865,2.2887,2.2933,2.2953,2.297,2.2988,2.2998,2.2996,2.2996,2.301,2.3011,2.3012,2.3016,2.3017,2.2998,2.2997,2.2997,0,2.263,2.2672,2.2696,2.2723,2.2742,2.2761,2.2785,2.2806,2.2847,2.2858,2.2859,2.2914,2.2937,2.2971,2.2975,2.2988,2.2994,2.2992,2.3009,2.301,2.3011,2.3016,2.3017,2.2997,2.2997,2.2997,2.2997,0,2.2665,2.2693,2.271,2.2749,2.2769,2.2795,2.2821,2.2838,2.285,2.2868,2.2898,2.2925,2.2956,2.2965,2.2978,2.3,2.2999,2.3004,2.3005,2.3011,2.3016,2.3018,2.2996,2.2996,2.2997,2.2997,0,0,2.2674,2.2724,2.273,2.2746,2.2784,2.2805,2.2829,2.286,2.2873,2.2899,2.2918,2.2955,2.2959,2.2977,2.2991,2.3003,2.3012,2.3006,2.3007,2.3005,2.3035,2.3031,2.3032,2.3018,2.3019,2.3019,2.3032,0,2.2694,2.274,2.2761,2.2797,2.2821,2.2837,2.2858,2.2882,2.2898,2.292,2.2938,2.2962,2.2967,2.2977,2.2989,2.3009,2.3018,2.3008,2.3035,2.3035,2.3026,2.3035,2.3032,2.3042,2.3034,2.3034,2.3034,0,2.2724,2.275,2.2788,2.2819,2.283,2.2849,2.2876,2.2898,2.2923,2.2934,2.2953,2.2966,2.2989,2.2988,2.3018,2.301,2.3022,2.3032,2.3033,2.3037,2.3035,2.3037,2.3047,2.3048,2.3038,2.3038,2.3037,0,2.2724,2.2768,2.2796,2.281,2.2848,2.286,2.2876,2.2901,2.2917,2.294,2.295,2.2975,2.2989,2.3007,2.3025,2.3023,2.3052,2.3054,2.306,2.306,2.3066,2.3066,2.3077,2.3075,2.3075,2.3075,2.3075,0,2.2743,2.2765,2.2796,2.2814,2.2838,2.2859,2.2882,2.2899,2.292,2.2939,2.2954,2.2971,2.2994,2.3013,2.3027,2.3048,2.3055,2.3062,2.3066,2.3061,2.306,2.3069,2.3068,2.3075,2.3075,2.3075,2.3075,0,2.2748,2.277,2.2801,2.2833,2.2842,2.2858,2.2884,2.29,2.2916,2.2939,2.2946,2.2971,2.2993,2.3013,2.3043,2.3052,2.3073,2.3078,2.3065,2.3067,2.3072,2.307,2.3089,2.3091,2.3088,2.3088,2.3088,0,2.2758,2.2776,2.2809,2.2823,2.2839,2.2861,2.2877,2.2897,2.2913,2.2941,2.2952,2.2976,2.2996,2.303,2.305,2.3072,2.3077,2.3081,2.308,2.3073,2.3075,2.3073,2.3074,2.3081,2.3081,2.3081,2.3081,0,2.2774,2.2783,2.2806,2.2831,2.2849,2.287,2.2892,2.2901,2.2925,2.2941,2.2965,2.298,2.3009,2.3032,2.3055,2.3069,2.3078,2.3081,2.3083,2.3078,2.307,2.3073,2.3064,2.3081,2.3081,2.3081,2.3081,2.3081,2.2781,2.2796,2.2821,2.2844,2.2862,2.2881,2.2896,2.2914,2.2934,2.296,2.297,2.2993,2.3015,2.3047,2.3061,2.3077,2.3079,2.3083,2.3084,2.3084,2.3083,2.3067,2.3082,2.3082,2.3082,2.3082,2.3082,0,2.2795,2.2812,2.2833,2.2862,2.288,2.2887,2.291,2.2923,2.2944,2.2964,2.2983,2.3007,2.3028,2.3048,2.307,2.3079,2.3083,2.3084,2.3083,2.3085,2.3081,2.3076,2.3079,2.3079,2.3079,2.3079,2.3079,2.3079,2.2805,2.283,2.2841,2.2874,2.2889,2.2913,2.2925,2.2941,2.2956,2.2984,2.3001,2.3015,2.3033,2.3056,2.3074,2.3079,2.3086,2.3085,2.3091,2.3086,2.3086,2.3086,2.3082,2.3086,2.3086,2.3094,2.3094,2.3094]}]]